• In Russia
  • List of Countries
  • For 7 days
  • Water Temperature
  • Satellite Maps
  • Weather Map
  • Weather Widgets
  • user-avatar
    Login

    Hourly Weather Strekowo

    Today, 20 February, Wednesday

    Time Temperature Precipitation Wind Pressure Humidity
    00:00 +2°C° 0 mm 5 mps 748 mmHg 91%
    01:00 +2°C° 0 mm 3 mps 748 mmHg 92%
    02:00 +1°C° 0 mm 4 mps 748 mmHg 92%
    03:00 +1°C° 0 mm 5 mps 748 mmHg 92%
    04:00 +1°C° 0 mm 5 mps 748 mmHg 92%
    05:00 +1°C° 0 mm 6 mps 748 mmHg 91%
    06:00 +1°C° 0 mm 6 mps 748 mmHg 90%
    07:00 +1°C° 0 mm 6 mps 749 mmHg 91%
    08:00 +2°C° 0 mm 7 mps 749 mmHg 83%
    09:00 +3°C° 0 mm 7 mps 749 mmHg 76%
    10:00 +2°C° 0 mm 8 mps 750 mmHg 69%
    11:00 +4°C° 0.1 mm 8 mps 750 mmHg 67%
    12:00 +4°C° 0.1 mm 8 mps 750 mmHg 66%
    13:00 +3°C° 0.1 mm 9 mps 750 mmHg 64%
    14:00 +4°C° 0 mm 8 mps 750 mmHg 65%
    15:00 +2°C° 0 mm 8 mps 750 mmHg 66%
    16:00 +3°C° 0 mm 7 mps 751 mmHg 67%
    17:00 +3°C° 0 mm 7 mps 751 mmHg 70%
    18:00 +2°C° 0 mm 7 mps 751 mmHg 73%
    19:00 +2°C° 0 mm 6 mps 752 mmHg 76%
    20:00 +1°C° 0 mm 6 mps 752 mmHg 78%
    21:00 0°C° 0 mm 5 mps 753 mmHg 80%
    22:00 0°C° 0 mm 5 mps 754 mmHg 82%
    23:00 -1°C° 0 mm 4 mps 754 mmHg 81%

    Tomorrow, 21 February, Thursday

    Time Temperature Precipitation Wind Pressure Humidity
    00:00 -2°C° 0 mm 4 mps 754 mmHg 79%
    01:00 -1°C° 0 mm 3 mps 755 mmHg 78%
    02:00 -1°C° 0 mm 3 mps 755 mmHg 77%
    03:00 -1°C° 0 mm 3 mps 755 mmHg 75%
    04:00 -1°C° 0 mm 3 mps 755 mmHg 74%
    05:00 -1°C° 0 mm 2 mps 755 mmHg 74%
    06:00 -1°C° 0 mm 2 mps 755 mmHg 74%
    07:00 -1°C° 0 mm 2 mps 755 mmHg 74%
    08:00 +1°C° 0 mm 2 mps 755 mmHg 73%
    09:00 +3°C° 0 mm 1 mps 755 mmHg 71%
    10:00 +4°C° 0 mm 1 mps 755 mmHg 70%
    11:00 +4°C° 0.2 mm 1 mps 755 mmHg 75%
    12:00 +4°C° 0.2 mm 1 mps 755 mmHg 79%
    13:00 +3°C° 0.2 mm 2 mps 754 mmHg 84%
    14:00 +3°C° 0.8 mm 2 mps 754 mmHg 87%
    15:00 +3°C° 0.8 mm 2 mps 753 mmHg 91%
    16:00 +2°C° 0.8 mm 3 mps 753 mmHg 95%
    17:00 +2°C° 1.2 mm 3 mps 753 mmHg 95%
    18:00 +2°C° 1.2 mm 3 mps 752 mmHg 96%
    19:00 +2°C° 1.2 mm 3 mps 752 mmHg 96%
    20:00 +3°C° 0.8 mm 2 mps 752 mmHg 97%
    21:00 +3°C° 0.8 mm 2 mps 752 mmHg 97%
    22:00 +2°C° 0.8 mm 2 mps 751 mmHg 97%
    23:00 0°C° 0.6 mm 4 mps 752 mmHg 95%

    Day after tomorrow, 22 February, Friday

    Time Temperature Precipitation Wind Pressure Humidity
    00:00 -1°C° 0.6 mm 5 mps 752 mmHg 93%
    01:00 -3°C° 0.6 mm 7 mps 752 mmHg 91%
    02:00 -4°C° 0.2 mm 7 mps 753 mmHg 89%
    03:00 -6°C° 0.2 mm 7 mps 754 mmHg 86%
    04:00 -6°C° 0.2 mm 7 mps 755 mmHg 84%
    05:00 -7°C° 0 mm 7 mps 756 mmHg 81%
    06:00 -7°C° 0 mm 7 mps 757 mmHg 79%
    07:00 -8°C° 0 mm 6 mps 759 mmHg 76%
    08:00 -8°C° 0 mm 6 mps 760 mmHg 72%
    09:00 -8°C° 0 mm 6 mps 761 mmHg 69%
    10:00 -8°C° 0 mm 7 mps 762 mmHg 65%
    11:00 -8°C° 0 mm 6 mps 763 mmHg 63%
    12:00 -6°C° 0 mm 6 mps 763 mmHg 60%
    13:00 -6°C° 0 mm 6 mps 764 mmHg 58%
    14:00 -6°C° 0 mm 6 mps 764 mmHg 57%
    15:00 -6°C° 0 mm 6 mps 765 mmHg 56%
    16:00 -6°C° 0 mm 6 mps 765 mmHg 54%
    17:00 -7°C° 0 mm 5 mps 766 mmHg 54%
    18:00 -7°C° 0 mm 5 mps 767 mmHg 55%
    19:00 -8°C° 0 mm 5 mps 767 mmHg 55%
    20:00 -8°C° 0 mm 5 mps 768 mmHg 55%
    21:00 -8°C° 0 mm 5 mps 768 mmHg 55%
    22:00 -8°C° 0 mm 5 mps 768 mmHg 55%
    23:00 -8°C° 0 mm 5 mps 769 mmHg 57%

    23 February, Saturday

    Time Temperature Precipitation Wind Pressure Humidity
    00:00 -8°C° 0 mm 4 mps 769 mmHg 58%
    01:00 -9°C° 0 mm 4 mps 769 mmHg 60%
    02:00 -9°C° 0 mm 4 mps 769 mmHg 62%
    03:00 -9°C° 0 mm 4 mps 769 mmHg 64%
    04:00 -8°C° 0 mm 3 mps 769 mmHg 66%
    05:00 -8°C° 0 mm 3 mps 770 mmHg 67%
    06:00 -10°C° 0 mm 4 mps 770 mmHg 68%
    07:00 -10°C° 0 mm 4 mps 770 mmHg 68%
    08:00 -9°C° 0 mm 4 mps 770 mmHg 64%
    09:00 -7°C° 0 mm 3 mps 770 mmHg 60%
    10:00 -6°C° 0 mm 3 mps 770 mmHg 55%
    11:00 -6°C° 0 mm 3 mps 770 mmHg 53%
    12:00 -5°C° 0 mm 4 mps 770 mmHg 51%
    13:00 -4°C° 0 mm 4 mps 770 mmHg 49%
    14:00 -4°C° 0 mm 3 mps 770 mmHg 49%
    15:00 -4°C° 0 mm 3 mps 769 mmHg 50%
    16:00 -4°C° 0 mm 3 mps 769 mmHg 51%
    17:00 -4°C° 0 mm 3 mps 769 mmHg 54%
    18:00 -4°C° 0 mm 2 mps 769 mmHg 56%
    19:00 -4°C° 0 mm 2 mps 769 mmHg 59%
    20:00 -4°C° 0 mm 2 mps 769 mmHg 60%
    21:00 -2°C° 0 mm 1 mps 769 mmHg 61%
    22:00 -2°C° 0 mm 1 mps 769 mmHg 62%
    23:00 -2°C° 0 mm 1 mps 769 mmHg 60%

    24 February, Sunday

    Time Temperature Precipitation Wind Pressure Humidity
    00:00 -2°C° 0 mm 1 mps 768 mmHg 58%
    01:00 -3°C° 0 mm 2 mps 768 mmHg 56%
    02:00 -3°C° 0 mm 2 mps 768 mmHg 55%
    03:00 -3°C° 0 mm 2 mps 767 mmHg 54%
    04:00 -4°C° 0 mm 3 mps 767 mmHg 53%
    05:00 -4°C° 0 mm 3 mps 767 mmHg 56%
    06:00 -4°C° 0 mm 3 mps 767 mmHg 60%
    07:00 -4°C° 0 mm 3 mps 766 mmHg 63%
    08:00 -2°C° 0 mm 3 mps 766 mmHg 62%
    09:00 -1°C° 0 mm 3 mps 766 mmHg 62%
    10:00 -1°C° 0 mm 3 mps 766 mmHg 61%
    11:00 0°C° 0 mm 3 mps 766 mmHg 61%
    12:00 +1°C° 0 mm 3 mps 766 mmHg 62%
    13:00 +3°C° 0 mm 2 mps 766 mmHg 62%
    14:00 +2°C° 0 mm 2 mps 766 mmHg 65%
    15:00 +2°C° 0 mm 2 mps 765 mmHg 69%
    16:00 +2°C° 0 mm 2 mps 765 mmHg 72%
    17:00 +1°C° 0 mm 2 mps 765 mmHg 74%
    18:00 +1°C° 0 mm 2 mps 765 mmHg 77%
    19:00 -1°C° 0 mm 2 mps 765 mmHg 79%
    20:00 -1°C° 0 mm 2 mps 765 mmHg 80%
    21:00 -1°C° 0 mm 2 mps 765 mmHg 81%
    22:00 -1°C° 0 mm 2 mps 765 mmHg 81%
    23:00 -1°C° 0 mm 2 mps 765 mmHg 82%

    25 February, Monday

    Time Temperature Precipitation Wind Pressure Humidity
    00:00 -1°C° 0 mm 2 mps 764 mmHg 82%
    01:00 -1°C° 0 mm 2 mps 764 mmHg 82%
    02:00 -1°C° 0 mm 3 mps 764 mmHg 85%
    03:00 -1°C° 0 mm 3 mps 763 mmHg 88%
    04:00 -1°C° 0 mm 3 mps 763 mmHg 90%
    05:00 -1°C° 0 mm 3 mps 762 mmHg 92%
    06:00 -1°C° 0 mm 3 mps 762 mmHg 93%
    07:00 -1°C° 0 mm 3 mps 762 mmHg 95%
    08:00 -1°C° 0 mm 4 mps 762 mmHg 93%
    09:00 -1°C° 0 mm 5 mps 763 mmHg 91%
    10:00 -1°C° 0 mm 6 mps 763 mmHg 90%
    11:00 +1°C° 0 mm 6 mps 763 mmHg 86%
    12:00 +1°C° 0 mm 6 mps 763 mmHg 82%
    13:00 +1°C° 0 mm 6 mps 763 mmHg 78%
    14:00 +1°C° 0 mm 5 mps 763 mmHg 79%
    15:00 +1°C° 0 mm 5 mps 763 mmHg 80%
    16:00 +1°C° 0 mm 4 mps 763 mmHg 80%
    17:00 0°C° 0 mm 4 mps 764 mmHg 83%
    18:00 -1°C° 0 mm 4 mps 764 mmHg 86%
    19:00 -1°C° 0 mm 4 mps 764 mmHg 89%
    20:00 -2°C° 0 mm 4 mps 764 mmHg 90%
    21:00 -2°C° 0 mm 4 mps 764 mmHg 91%
    22:00 -2°C° 0 mm 4 mps 764 mmHg 92%
    23:00 -2°C° 0 mm 4 mps 764 mmHg 91%
    Show more